Location: Bonaustraße
(48.4603°N, 11.9280°E)
Time: 07:00:10
(UTC+01:00)

X-37B - Pass Details

Date: 22 January 2021
Orbit: 383 x 391 km, 45.0° (Epoch: 27 February)

Event Time Altitude Azimuth Distance (km) Brightness Sun altitude
Rises 19:45:49 0° 259° (W) 2,274 5.7 -27.9°
Reaches altitude 10° 19:47:56 10° 253° (WSW) 1,420 4.3 -28.3°
Enters shadow 19:48:34 15° 249° (WSW) 1,177 3.7 -28.4°
